Location: Nickerson Gardens
(33.9320°N, 118.2484°W)
Time: 23:46:32
(UTC+00:00)

Envisat - Pass Details

Date: 23 January 2021
Orbit: 764 x 766 km, 98.1° (Epoch: 06 March)

Event Time Altitude Azimuth Distance (km) Brightness Sun altitude
Rises 12:33:13 0° 31° (NNE) 3,235 6.6 -29.3°
Reaches altitude 10° 12:36:08 10° 48° (NE) 2,304 6.0 -28.7°
Maximum altitude 12:39:48 20° 94° (E) 1,714 5.6 -28.0°
Drops below altitude 10° 12:43:28 10° 141° (SE) 2,293 6.0 -27.2°
Sets 12:46:20 0° 158° (SSE) 3,214 6.6 -26.6°
